Theta_e
310 311 313 315 316 318 320 321 320 320 320 321 323 323 322 322 323 323 322 322 320 319 319 317 316 317 317 316 315 314 312 310 304 288 289 289 288 288 287 287 288 287 288
297 298 300 302 303 306 310 313 316 317 321 323 322 323 323 324 323 322 321 321 320 319 318 317 316 316 315 316 313 311 309 305 300 288 286 286 286 288 287 286 286 286 285
296 296 296 296 296 297 298 300 303 306 309 312 317 320 321 322 323 322 322 321 320 320 319 317 316 315 313 311 309 308 306 301 295 288 285 286 285 286 284 284 285 285 285
296 296 296 296 297 297 297 297 298 299 300 302 304 308 310 313 316 318 317 319 319 318 317 316 315 313 311 310 307 304 297 291 289 288 285 285 284 283 283 283 281 283 282
296 295 295 295 295 295 295 295 298 299 300 299 299 300 302 304 303 305 306 308 308 308 305 305 306 304 297 301 303 298 297 291 288 287 285 283 282 282 283 282 282 281 281
294 294 293 293 292 292 291 291 293 293 295 295 294 295 294 295 296 296 297 303 301 299 301 298 297 292 293 296 296 295 296 290 287 286 285 285 284 283 283 282 281 280 277
293 291 290 290 290 289 289 289 288 289 291 292 293 293 292 293 295 295 294 293 294 295 293 292 289 289 288 289 291 292 291 293 291 289 286 285 284 284 284 282 281 281 280
290 289 289 289 289 288 288 289 290 289 291 288 289 290 289 291 293 293 293 291 291 290 290 290 289 287 288 287 287 287 286 286 287 286 286 285 285 284 285 283 282 281 280
288 288 288 287 284 287 288 290 289 286 286 284 285 283 284 287 291 292 292 288 288 287 287 287 287 287 289 290 286 285 284 285 288 289 289 289 288 288 286 283 280 279 277
287 287 287 285 284 286 289 287 286 285 285 285 285 285 285 286 289 292 290 286 285 284 285 285 286 286 290 290 286 286 284 283 284 284 285 286 287 286 287 284 282 279 278
285 285 282 282 284 286 286 285 285 285 285 285 284 284 285 285 287 292 290 285 285 284 284 284 284 290 290 289 288 286 286 285 285 283 283 282 283 283 284 284 284 282 278
281 282 282 284 285 285 286 285 285 285 285 285 285 284 284 284 287 290 289 288 287 285 284 284 285 290 289 289 285 288 288 285 283 282 282 282 282 282 283 283 283 284 283
283 283 283 284 285 285 285 285 284 285 285 283 283 282 283 283 285 289 289 289 288 284 284 285 288 289 289 287 288 288 284 283 281 280 280 282 283 283 282 280 279 278 278
283 282 283 285 284 284 284 284 285 284 284 283 284 284 282 282 282 284 285 285 285 285 286 286 287 287 287 286 285 286 284 283 282 282 281 280 281 280 280 279 278 276 276
282 281 283 283 284 283 283 284 283 283 285 284 285 283 279 281 283 285 285 283 281 284 284 284 284 283 283 282 284 284 283 283 283 283 282 281 280 279 279 278 278 276 275
280 280 282 282 281 281 282 282 286 287 288 288 288 285 279 285 287 288 288 287 287 286 276 279 281 282 282 282 282 282 283 283 283 283 283 282 279 279 279 277 277 276 275
280 278 278 279 280 280 279 277 278 279 284 287 288 288 287 287 288 287 288 288 288 286 271 271 272 277 281 281 276 276 279 277 283 283 282 282 281 280 278 278 276 276 275
270 271 271 271 271 270 270 269 277 276 273 273 281 285 286 287 288 287 288 288 285 285 278 274 274 274 274 275 276 275 278 282 281 281 281 281 281 280 279 277 276 275 274
274 271 268 267 267 269 268 266 266 267 270 276 275 280 277 285 286 287 287 284 283 282 283 284 284 283 283 282 282 283 282 282 281 280 280 280 279 278 277 276 275 275 274
276 276 275 278 278 277 277 278 279 279 279 278 277 276 275 277 280 281 282 282 282 282 282 281 281 283 284 282 279 279 280 279 279 278 277 277 276 276 275 275 274 273 272
278 279 278 278 277 277 277 277 277 277 276 274 272 270 278 269 272 274 275 273 272 271 271 270 270 271 271 272 274 276 277 276 274 274 274 272 272 271 271 273 272 272 271
272 270 268 267 268 269 264 262 264 262 260 258 257 259 271 259 258 257 257 258 259 260 262 261 263 265 267 268 268 269 268 268 268 268 268 268 268 268 268 269 269 269 268
265 265 263 262 264 262 263 258 261 262 258 256 257 255 255 254 254 254 253 254 255 257 258 258 260 262 260 261 261 262 263 264 265 265 265 265 265 266 264 265 263 263 263
266 266 264 263 263 262 261 257 261 262 262 261 261 256 255 254 254 253 252 252 253 255 256 256 255 255 255 255 253 253 255 257 260 263 264 262 262 264 262 262 262 261 261
266 265 265 264 263 263 262 258 258 257 257 257 256 255 254 254 254 255 255 256 257 256 256 255 252 253 253 254 254 256 257 259 258 259 258 259 260 260 260 259 259 259 259
264 263 263 262 261 261 261 260 257 258 258 258 258 258 256 257 257 257 258 258 257 256 255 253 252 252 253 253 254 258 259 264 261 260 256 255 256 255 257 258 258 258 259
Wind_Speed
7 7 7 6 6 6 8 9 8 9 8 10 12 13 13 14 15 15 16 16 16 16 16 16 18 18 13 13 12 12 13 13 12 2 2 3 9 10 8 6 7 6 4
5 4 6 4 4 5 6 5 4 6 6 9 10 12 13 14 12 14 16 14 16 17 17 17 19 13 17 16 12 16 13 12 7 6 3 3 6 12 11 9 7 5 6
4 5 4 4 5 6 6 5 5 5 6 6 6 8 10 12 12 13 15 15 15 16 16 16 18 15 15 12 12 13 11 8 8 6 4 4 2 7 6 3 5 4 5
5 5 5 5 6 5 3 3 3 3 5 6 5 6 6 8 8 12 9 12 13 13 12 13 13 14 14 15 11 11 5 5 5 5 3 6 5 2 3 6 4 3 4
5 5 4 4 3 1 2 3 4 5 5 5 5 6 6 7 5 7 7 7 6 7 6 6 7 9 10 10 6 6 10 9 9 9 5 3 3 6 13 6 5 3 3
5 4 2 2 2 3 3 3 3 3 3 3 5 5 6 4 7 9 8 8 5 7 8 6 5 4 3 5 5 6 9 9 7 7 4 8 11 6 5 6 4 4 4
3 1 2 3 3 2 2 2 2 0 3 3 4 4 5 5 8 10 10 5 5 5 5 5 3 1 4 6 9 9 6 8 10 6 9 8 9 11 9 6 2 2 2
3 3 4 5 5 4 4 2 1 3 3 2 3 3 3 4 5 7 8 5 3 2 3 4 4 4 5 8 8 6 5 4 4 4 5 6 3 9 8 3 5 4 4
4 4 3 3 2 3 3 2 2 2 2 2 2 4 3 4 9 9 2 2 1 2 2 0 3 4 9 11 9 10 9 7 7 14 14 12 11 13 12 7 4 3 1
5 4 3 3 3 2 2 2 2 2 1 1 3 4 5 6 8 8 2 3 1 1 3 3 2 3 12 16 11 12 11 10 9 5 4 8 8 7 10 3 6 4 3
3 4 4 5 5 4 2 0 0 1 2 1 2 1 2 3 6 8 4 2 1 2 3 2 1 8 9 8 7 3 4 9 9 5 5 3 3 4 3 3 5 4 3
4 5 4 5 3 3 4 2 0 1 2 3 3 3 4 3 3 3 3 1 1 0 1 1 2 11 12 10 6 10 15 12 6 5 5 4 5 5 4 4 5 6 4
7 5 4 4 3 1 3 3 2 2 2 2 2 1 1 3 3 2 2 2 3 2 2 2 6 9 10 8 11 11 9 5 4 2 3 5 5 3 3 2 2 2 2
9 5 3 3 3 3 2 3 2 1 2 2 2 2 2 0 1 1 1 2 5 3 5 4 6 8 7 6 5 7 4 3 4 3 2 1 3 3 5 5 5 3 4
8 5 4 3 2 4 2 2 2 1 1 1 0 2 2 1 2 3 3 3 2 2 4 3 3 3 3 2 2 4 4 4 4 3 2 3 4 4 6 5 5 4 6
8 4 3 3 2 2 4 2 8 8 4 2 1 2 1 4 2 7 6 5 6 11 2 3 4 3 4 5 4 5 5 6 5 5 5 5 6 7 7 5 5 7 7
7 6 4 4 4 5 3 3 2 6 9 12 8 6 2 2 3 2 5 5 7 7 2 1 1 2 5 3 3 3 4 3 5 5 6 6 7 6 7 6 7 7 7
6 3 1 1 1 4 4 3 3 3 2 3 6 9 12 12 8 3 2 3 1 4 1 1 1 2 2 2 2 2 3 4 4 5 6 7 6 6 6 5 5 6 6
5 3 1 2 3 5 4 3 3 3 3 2 3 6 7 8 7 8 7 1 1 1 1 2 2 4 4 4 5 5 6 5 5 5 4 5 4 4 6 5 5 7 7
6 7 4 3 4 4 4 4 3 3 4 3 4 4 4 4 3 4 4 4 4 4 4 4 4 4 4 3 2 2 3 3 3 3 3 3 3 3 5 5 4 5 6
4 4 4 3 3 3 3 3 3 3 4 4 3 4 11 4 4 4 4 5 5 5 5 4 3 2 2 3 5 5 5 3 2 1 1 1 1 2 3 4 5 5 6
4 4 3 3 3 3 3 3 3 4 3 3 2 3 10 4 4 3 3 3 4 4 4 3 3 3 4 4 4 4 4 4 4 3 2 2 2 2 3 3 4 4 3
5 5 4 3 4 4 4 2 3 3 3 2 2 3 4 3 3 2 1 1 1 2 3 2 2 3 3 3 2 2 2 2 3 3 3 3 3 3 3 3 2 2 3
6 6 5 4 3 3 3 2 3 3 3 3 3 2 2 1 1 1 2 2 3 3 2 2 2 3 3 3 3 3 3 3 2 3 5 2 3 4 3 3 3 3 2
4 4 4 3 3 3 3 3 2 2 2 2 1 0 0 1 1 2 2 2 2 2 3 3 2 3 3 6 5 6 6 6 4 4 2 2 3 4 3 2 2 2 3
4 4 4 3 3 2 2 2 1 2 2 1 1 1 2 1 2 2 3 3 3 3 3 2 3 6 6 4 6 8 7 7 6 6 3 2 2 3 2 3 3 2 2
Wind_Direction
193 197 210 220 222 230 230 234 230 234 227 223 226 225 224 224 223 225 229 231 229 230 229 227 229 232 234 233 230 232 225 223 219 132 123 140 170 170 172 171 165 170 190
192 199 227 246 252 249 249 255 264 254 245 241 238 234 234 237 233 229 233 232 233 237 236 236 236 230 231 236 235 234 227 207 179 153 156 148 194 184 175 169 170 173 178
175 195 217 233 234 248 260 269 274 283 282 289 273 257 255 248 250 244 241 244 242 242 245 240 237 238 240 234 226 238 231 207 150 149 154 124 138 174 156 172 176 170 182
187 204 216 225 230 232 244 269 298 330 326 324 331 327 316 307 288 274 251 248 249 253 248 247 241 238 238 240 234 231 169 149 121 132 111 145 122 139 148 173 188 191 189
211 228 238 244 239 289 334 11 5 339 326 325 327 325 319 318 314 300 271 253 261 268 263 268 259 260 285 280 246 192 195 184 162 158 143 88 109 154 194 176 184 140 220
212 242 324 342 26 34 39 52 29 357 346 342 325 316 320 311 315 320 307 289 273 267 270 265 273 309 2 140 125 158 204 154 160 141 134 182 171 178 180 176 157 138 217
199 162 154 163 166 161 146 123 99 191 231 274 283 288 293 296 309 317 310 299 291 283 273 266 246 37 110 117 127 142 158 172 153 143 153 181 174 170 170 155 171 138 107
193 199 180 177 180 175 163 146 240 235 234 249 284 288 286 273 314 311 308 293 274 281 273 239 230 173 161 147 142 126 101 64 100 105 132 138 125 140 153 143 123 111 78
182 195 190 192 183 181 171 215 236 275 330 328 297 311 312 320 331 319 317 65 7 14 16 311 195 175 174 155 121 108 82 59 70 91 111 117 135 148 140 120 129 107 148
170 160 148 148 159 172 228 215 166 129 175 308 337 350 337 330 336 322 119 119 136 71 42 4 229 198 159 160 149 146 140 148 131 90 70 87 98 138 139 80 147 141 142
156 136 125 130 143 169 120 62 86 174 151 101 43 41 17 346 341 343 99 36 277 154 158 147 105 174 155 140 121 104 117 133 130 105 100 68 79 104 158 157 149 167 158
150 116 112 101 94 117 129 105 128 127 52 31 42 14 352 355 17 44 83 30 237 272 135 120 135 161 146 140 118 132 141 132 128 134 153 171 173 196 190 177 184 196 203
91 76 68 84 78 76 124 140 142 136 116 70 15 66 7 1 1 31 7 67 98 48 74 141 156 154 136 119 129 134 129 146 148 152 193 196 204 173 153 156 162 168 187
115 114 131 126 133 138 134 140 155 136 93 91 100 7 327 288 192 126 102 71 89 74 116 117 121 110 107 121 137 158 166 185 195 197 216 119 127 172 190 183 199 190 211
115 137 146 122 155 121 81 93 135 122 171 127 52 182 175 280 236 198 157 117 98 114 117 117 134 141 137 130 161 190 190 185 234 237 222 213 210 196 214 189 197 184 208
119 138 172 143 175 133 113 50 55 66 76 87 332 198 250 243 273 198 189 168 173 157 103 154 173 188 197 199 201 211 219 224 227 223 228 223 215 216 219 198 205 210 221
136 159 186 162 168 131 92 78 6 355 20 31 32 33 53 10 349 209 216 187 185 179 63 10 180 181 232 227 228 225 243 215 228 229 230 239 239 234 220 220 216 219 229
118 111 47 326 85 98 104 119 95 81 69 337 9 17 14 15 32 47 294 149 227 217 119 139 219 241 239 241 252 236 248 247 223 234 243 243 242 243 241 231 222 228 236
103 95 118 116 120 120 115 109 113 116 87 35 351 33 6 15 27 38 29 42 348 336 308 280 239 236 230 221 229 232 232 238 234 232 236 240 234 225 235 227 231 226 229
120 137 142 135 118 102 117 111 100 98 86 75 46 0 351 25 34 18 31 23 13 17 15 1 2 345 331 319 295 255 252 249 249 242 245 242 242 231 246 249 236 242 234
104 105 95 77 81 88 80 92 91 93 100 88 56 339 26 52 21 30 28 34 28 21 14 6 349 359 358 357 356 354 336 342 333 314 268 233 190 233 241 257 259 247 250
91 100 97 108 87 80 85 79 73 74 71 89 24 0 46 46 44 33 31 25 6 5 359 356 358 353 357 1 356 1 350 340 340 327 309 287 260 250 240 236 242 245 225
109 112 99 80 84 101 96 86 108 115 118 107 86 53 47 46 46 33 18 319 346 353 344 1 354 352 356 343 345 334 315 302 309 299 284 266 249 255 235 244 222 217 209
100 107 114 110 110 105 105 102 92 90 90 88 77 68 48 40 56 356 333 331 353 330 332 5 358 339 327 321 317 309 299 294 293 295 301 264 257 260 234 226 220 223 211
98 105 104 114 110 112 120 111 107 110 126 132 113 75 322 352 329 288 279 294 297 309 320 330 321 308 315 312 304 310 305 310 295 283 300 297 275 265 254 238 212 222 212
96 96 99 106 106 104 111 125 157 167 172 182 206 245 245 268 281 297 315 324 306 291 300 299 317 320 320 304 302 300 294 303 290 265 231 221 250 275 255 246 243 219 209